Location: Cold Norton
(51.6667°N, 0.6667°E)
Time: 06:55:24
(UTC+00:00)

SL-12 R/B(2) - Pass Details

Date: 18 November 2025
Orbit: 1173 x 2175 km, 63.4° (Epoch: 12 December)

Event Time Altitude Azimuth Distance (km) Brightness Sun altitude
Rises 17:16:00 0° 204° (SSW) 4,189 7.5 -11.1°
Reaches altitude 10° 17:18:37 10° 201° (SSW) 3,300 6.8 -11.5°
Maximum altitude 17:26:26 62° 123° (ESE) 1,623 4.4 -12.7°
Enters shadow 17:35:43 11° 47° (NE) 3,901 6.1 -14.1°
